Theta_e
312 312 313 314 314 315 314 315 315 315 314 313 311 309 309 308 307 308 308 309 310 310 310 310 310 310 310 310 310 311 311 311 311 311 312 314 314 315 318 318 316 315 316 317 316 318 328 338 345 346 343 339 340 348 351 350 351 353 357 359 356 359 360 360 360 360 359 359 358 353 351 354 355 351 345 344 343 342 342 343 344 344 346 347 347 347 348 348
312 312 313 314 314 315 315 315 315 315 315 313 311 309 308 308 308 307 308 309 310 311 310 310 310 310 310 310 311 311 311 311 311 313 315 314 314 314 316 317 316 315 315 317 317 320 331 339 342 341 337 336 341 349 350 349 351 354 359 359 358 360 360 357 357 358 358 356 356 355 352 352 353 351 345 346 344 341 341 342 344 345 347 347 347 347 348 347
312 313 314 314 314 315 315 315 315 315 314 311 308 308 308 308 308 307 308 308 309 311 310 310 310 309 310 310 311 311 311 316 319 322 323 317 315 314 315 316 315 314 315 318 315 320 333 339 336 334 333 335 342 350 350 351 353 353 355 360 362 359 357 356 354 356 357 355 356 355 354 353 352 350 346 345 344 341 342 343 344 346 347 348 347 347 347 347
312 313 314 314 314 314 315 315 315 314 313 310 307 307 307 307 308 307 308 308 309 310 310 310 310 310 310 310 311 311 312 323 329 329 327 322 319 316 314 314 315 314 316 317 316 321 332 335 331 329 329 334 344 350 351 353 355 354 356 362 362 356 357 357 352 354 356 356 356 356 356 356 352 351 347 343 343 343 343 343 345 346 347 347 346 347 347 347
313 314 314 314 314 314 314 315 314 313 312 310 307 307 307 307 308 307 307 308 308 310 310 310 310 310 310 309 311 310 313 327 334 331 325 322 322 319 314 314 314 314 316 316 317 324 332 331 327 327 328 339 350 352 353 352 353 357 358 357 356 353 357 357 351 352 356 356 356 355 357 356 352 352 347 343 343 344 343 343 344 344 346 346 346 347 348 348
313 314 314 314 314 314 314 314 314 312 311 309 307 307 307 307 307 307 307 308 309 310 310 311 310 310 310 310 311 310 314 325 330 329 326 323 324 321 316 314 313 315 316 316 321 327 331 330 328 329 331 344 355 354 355 352 351 361 361 353 352 353 355 355 352 352 353 353 352 353 356 354 352 353 347 342 342 343 343 343 343 344 345 345 345 347 347 348
313 314 315 314 314 314 314 313 313 312 311 308 307 307 307 307 307 307 307 308 309 309 310 310 310 310 310 310 311 311 315 320 323 327 328 327 326 322 318 315 313 316 316 318 326 330 332 332 332 332 334 349 355 353 355 352 351 360 360 351 351 353 353 353 352 352 352 353 351 350 353 353 353 354 347 342 342 342 343 343 344 344 345 345 345 346 347 347
313 314 314 314 314 314 313 313 313 313 312 309 308 307 307 307 307 307 307 308 309 309 310 310 310 309 310 310 310 313 319 324 326 329 329 328 327 323 319 315 314 317 316 321 331 334 332 331 333 332 337 353 354 352 354 354 356 357 356 351 351 353 353 352 352 352 352 352 350 349 352 350 349 351 347 343 342 342 343 343 344 344 344 345 346 346 346 347
313 314 315 314 314 313 313 313 314 315 315 313 311 309 308 307 307 308 308 308 309 310 310 310 310 309 310 310 311 320 327 329 329 329 328 327 325 321 318 315 314 316 317 325 334 334 330 330 334 333 336 347 350 351 353 358 362 356 354 353 352 353 353 353 353 352 352 350 349 349 352 350 346 349 347 342 342 343 343 343 344 344 345 346 345 346 346 347
313 314 314 314 314 313 313 314 315 316 317 316 315 312 310 309 308 308 309 309 310 310 310 310 310 309 310 309 314 327 330 329 329 326 326 326 324 319 316 315 314 316 318 328 335 333 331 331 334 331 333 344 350 352 352 357 361 356 353 353 352 352 352 353 352 351 351 350 349 349 352 351 347 350 348 342 342 343 343 344 344 344 345 345 345 345 346 346
314 314 314 314 314 313 313 315 316 316 317 316 317 316 314 312 311 311 311 311 312 312 313 312 311 309 310 309 313 324 326 326 326 323 324 326 323 318 316 314 314 317 319 329 335 332 332 331 331 330 335 349 354 354 354 355 357 355 354 353 351 351 352 353 352 349 350 352 349 348 351 350 349 354 349 341 342 343 342 343 343 344 344 344 344 345 345 346
314 314 314 314 313 312 313 315 316 317 316 316 317 316 316 315 314 315 314 315 315 315 315 314 313 312 312 310 312 320 322 323 323 323 325 325 321 316 315 313 315 318 318 327 333 331 330 329 329 329 335 350 355 357 357 354 356 355 354 354 351 352 353 354 355 352 351 353 349 348 354 354 355 355 347 341 342 342 342 343 343 343 344 344 344 345 345 345
314 314 314 314 313 313 314 315 316 316 316 316 317 316 317 316 316 316 316 317 317 317 316 314 317 319 315 314 317 320 321 321 321 324 325 324 320 314 314 313 315 319 319 326 330 329 329 328 328 327 332 349 354 356 357 354 355 356 355 355 352 354 355 353 354 354 354 355 350 350 356 356 357 352 344 342 342 342 342 342 343 342 343 343 344 344 344 344
314 314 314 314 312 313 315 315 316 316 316 316 317 317 318 318 318 317 316 316 316 316 316 314 319 323 319 319 323 322 321 321 321 323 325 324 320 316 315 316 319 322 324 327 328 328 327 327 328 324 331 349 354 354 355 354 356 359 357 356 357 355 355 353 354 356 357 355 352 354 355 354 357 351 344 343 341 342 342 342 343 342 343 343 343 344 343 344
314 314 314 313 312 313 315 315 315 315 316 317 317 319 319 320 320 319 316 316 316 316 315 315 319 323 321 322 323 323 322 321 320 323 324 323 321 320 319 320 322 324 325 326 326 327 326 327 326 327 341 351 353 354 356 356 358 361 357 354 358 357 355 355 355 358 359 355 353 356 356 355 358 352 344 343 342 342 342 342 342 342 342 342 342 343 342 343
314 314 314 313 312 313 315 314 315 315 316 318 319 320 320 322 323 321 318 316 316 316 315 316 317 319 324 325 320 322 323 321 320 321 323 322 321 321 321 322 323 323 324 324 325 326 325 327 325 332 351 356 353 354 357 359 358 361 360 356 356 356 357 356 354 356 357 356 356 358 361 360 357 351 345 343 341 342 342 341 341 341 341 341 342 342 342 343
314 314 314 312 312 313 314 314 315 316 317 319 320 320 321 325 326 321 318 318 317 318 319 320 317 318 326 326 319 321 323 322 320 320 322 322 321 321 321 322 323 322 324 324 325 325 324 327 327 330 346 352 351 352 353 354 353 356 360 358 355 355 357 357 355 354 353 358 359 358 362 362 359 353 348 344 341 341 341 340 341 340 341 341 341 342 342 342
314 314 313 312 312 314 314 314 315 316 318 319 320 321 322 324 326 322 319 320 319 321 326 325 322 322 324 321 322 323 322 323 322 322 323 322 321 321 320 321 322 322 323 325 325 326 324 325 327 328 333 338 343 350 350 350 349 351 356 355 354 355 356 356 357 356 354 357 359 357 356 359 362 356 348 346 342 339 340 340 340 340 341 342 341 342 342 342
314 314 313 313 313 314 315 315 316 318 320 321 321 322 322 321 324 324 321 321 321 324 328 325 323 324 321 318 324 324 322 324 323 322 322 321 321 320 320 321 322 322 323 325 324 324 323 323 327 327 328 330 335 345 349 348 347 351 353 353 354 354 355 358 359 358 356 356 359 358 355 359 364 360 351 350 346 341 341 340 341 340 340 342 342 342 342 341
314 314 314 314 315 315 316 316 317 319 322 322 322 323 322 321 322 323 321 322 322 323 325 323 322 323 320 319 323 324 324 325 323 323 322 322 322 321 321 321 322 322 323 324 324 324 322 323 326 326 326 328 330 337 343 344 347 350 352 353 354 353 355 359 359 357 357 358 358 356 358 361 362 361 354 351 350 347 345 341 339 340 340 342 342 342 342 341
314 314 314 315 316 317 318 318 319 321 322 322 322 322 322 322 322 321 321 322 323 323 324 324 324 323 321 318 319 321 323 324 322 323 322 322 322 322 321 320 321 323 322 322 322 323 322 321 324 325 325 326 326 330 338 344 348 350 352 353 354 354 356 358 358 357 356 359 357 354 360 361 360 361 356 351 353 351 349 345 342 341 340 341 342 342 341 341
314 314 315 317 319 320 321 321 321 322 322 322 322 322 322 322 322 321 322 322 322 323 324 324 325 325 321 317 318 321 321 322 321 323 324 323 322 322 320 320 321 322 322 321 321 322 321 320 322 322 322 323 324 325 335 346 349 350 351 353 354 356 357 358 357 356 356 359 358 355 358 359 358 361 356 352 353 350 349 349 345 344 343 341 342 342 341 341
314 314 315 318 320 321 320 320 321 322 322 321 321 322 322 322 323 322 322 323 323 324 324 323 323 323 319 317 320 321 320 321 321 323 324 323 323 322 319 319 320 321 320 320 322 320 318 320 320 320 320 322 323 324 333 345 348 350 350 350 354 356 355 356 356 355 355 357 358 355 354 355 356 359 357 352 351 350 351 350 346 346 347 344 341 341 341 341
314 314 315 318 319 319 319 319 321 322 322 322 322 322 323 323 323 323 323 323 324 324 322 322 321 319 318 318 320 321 320 321 321 323 324 324 323 322 320 319 318 319 319 320 322 320 319 320 320 319 319 321 321 322 331 343 345 347 349 350 354 356 353 355 356 354 354 355 355 352 351 353 355 357 360 357 352 351 351 351 348 346 349 347 342 341 342 342
314 314 316 318 319 319 319 319 321 323 322 323 323 323 322 323 323 322 323 325 328 327 320 318 320 318 318 319 320 321 319 320 321 322 324 324 323 323 321 320 319 319 319 319 320 320 320 320 320 320 320 320 320 319 328 339 340 341 347 351 355 356 355 356 355 353 353 354 353 352 350 352 354 355 359 360 358 355 353 353 352 349 350 350 345 342 342 342
314 315 317 319 319 319 320 320 322 322 322 322 323 323 322 322 323 322 325 330 330 327 318 316 319 318 318 319 319 320 321 322 323 322 324 324 323 323 322 322 321 320 320 319 319 321 321 321 321 322 320 320 320 319 325 335 333 333 341 350 354 354 355 355 352 350 351 352 353 353 353 352 352 354 357 359 362 360 356 354 354 351 351 351 347 343 342 342
314 315 318 319 318 319 319 320 321 322 323 323 324 324 322 322 323 321 327 329 323 320 318 318 320 319 319 320 318 322 324 324 324 323 325 324 322 322 322 322 321 321 322 320 318 319 321 321 320 322 321 320 320 319 325 333 331 331 339 349 353 355 355 354 351 350 352 353 353 354 356 353 351 355 357 357 361 361 359 358 355 353 351 351 349 344 343 343
314 315 317 318 318 319 318 319 321 321 322 323 325 324 322 324 323 322 330 325 316 316 320 318 319 319 320 321 320 323 325 324 324 324 324 323 322 321 321 321 321 321 323 320 319 320 321 321 320 322 322 319 321 324 330 335 333 338 347 351 352 355 355 353 350 352 353 352 352 352 353 352 351 356 359 357 358 360 359 358 357 353 351 351 350 347 344 343
314 315 317 318 318 319 318 319 319 319 321 323 323 323 324 325 323 327 333 327 317 317 320 318 319 319 320 321 320 322 322 322 324 323 322 322 321 321 321 322 321 322 322 321 322 322 322 322 321 323 323 322 327 332 336 337 334 341 350 351 352 353 353 351 350 351 349 347 350 349 349 351 352 355 357 356 357 358 358 357 356 354 351 351 350 348 346 344
313 314 316 318 319 318 318 318 318 318 319 320 322 325 325 325 328 332 328 322 317 318 319 319 320 319 320 320 320 321 321 322 324 322 321 321 321 321 321 322 321 322 324 323 323 323 321 323 324 326 327 326 330 334 335 336 335 340 348 351 351 351 352 352 352 349 343 343 348 347 348 350 350 353 355 355 356 356 356 357 356 354 351 349 350 349 347 345
313 314 316 318 318 318 318 318 319 320 320 321 325 326 326 329 334 333 323 316 317 320 319 320 320 320 320 319 320 322 321 323 324 323 322 321 321 321 320 323 323 323 327 326 325 326 323 323 326 327 328 327 331 333 330 331 331 334 343 348 348 348 347 347 348 345 340 344 350 349 350 349 346 352 356 354 354 352 353 355 356 355 351 349 350 350 349 346
313 314 316 318 319 318 318 319 321 322 322 324 326 326 330 335 335 331 326 318 316 317 319 321 321 321 321 320 320 321 322 323 323 323 323 321 323 323 321 324 326 323 325 327 325 325 325 325 327 328 328 328 331 333 329 329 331 332 337 339 340 342 341 340 343 344 340 346 354 351 349 349 348 355 357 353 353 351 351 352 353 354 352 349 351 351 349 347
313 314 316 318 318 318 319 320 321 323 324 326 325 326 334 337 332 328 324 317 316 317 319 321 321 322 322 321 321 321 322 323 321 322 323 321 323 324 321 323 326 322 322 324 321 320 323 327 328 328 328 328 331 333 327 326 329 330 332 330 332 336 336 334 337 342 344 348 351 349 351 350 349 354 356 353 352 351 350 351 351 352 352 351 351 351 350 348
313 314 317 318 318 317 319 322 322 325 325 325 326 330 334 334 331 326 319 316 318 319 319 320 320 321 322 323 323 323 323 323 321 322 325 323 321 324 323 322 324 322 322 324 322 319 320 324 329 329 328 327 331 332 328 327 327 328 332 331 331 336 335 331 334 341 346 350 350 347 349 349 348 352 355 352 350 350 350 350 351 351 352 351 350 351 350 348
314 316 317 318 319 319 321 324 325 327 326 325 331 333 332 331 326 320 317 318 319 319 318 319 319 319 320 322 323 322 323 323 322 323 325 324 322 323 324 324 323 324 324 324 323 322 320 324 330 328 327 327 329 329 327 327 327 327 330 329 328 334 337 334 338 344 345 349 351 347 348 352 354 357 357 351 349 350 349 349 351 352 352 352 352 352 351 349
315 317 319 321 322 321 322 325 326 327 326 328 334 333 332 330 322 315 319 319 317 317 318 319 320 319 318 321 322 321 322 322 323 325 324 324 324 323 323 323 323 325 324 323 324 323 320 324 329 326 327 328 327 327 326 326 328 328 326 326 328 332 334 330 331 336 339 342 345 344 347 353 354 357 356 352 351 351 349 349 350 352 352 352 352 352 352 350
316 317 320 323 323 321 322 324 323 325 326 327 330 333 333 327 318 317 320 318 316 318 318 318 320 319 317 319 321 320 321 322 321 324 323 323 324 324 323 324 323 323 323 322 324 324 321 323 327 325 327 328 325 326 326 325 328 328 322 324 330 329 333 334 327 326 332 339 344 344 347 349 347 354 359 355 354 353 351 350 350 352 353 352 352 351 351 352
315 317 320 322 321 319 322 323 321 324 326 325 328 335 335 326 319 318 319 317 318 319 318 317 318 319 319 318 319 320 321 319 320 324 324 321 323 323 322 323 323 321 321 322 324 324 322 322 326 328 325 326 327 324 324 324 326 327 322 324 327 323 327 331 325 322 324 335 346 346 346 348 348 354 358 355 357 357 353 351 351 352 353 352 352 351 351 352
316 318 321 321 319 321 323 323 322 323 324 324 329 334 329 323 319 318 318 318 318 318 318 317 317 320 320 318 319 320 319 318 321 326 324 322 323 323 321 321 321 320 320 323 324 325 325 322 323 328 325 324 327 324 323 324 324 324 323 324 324 324 327 326 324 327 325 332 345 344 342 348 351 354 355 354 357 357 354 352 351 352 353 352 352 351 352 352
316 319 323 323 321 323 324 323 322 323 323 326 331 330 322 318 318 318 319 318 317 319 319 318 318 320 321 321 321 320 321 321 322 324 324 322 322 322 321 320 321 321 321 322 323 325 330 326 320 326 328 324 325 325 325 326 324 322 320 320 320 322 326 323 323 330 330 335 344 344 343 350 353 356 357 355 356 356 355 354 351 351 352 352 352 352 353 353
316 319 323 324 324 324 325 323 320 322 326 327 327 325 321 319 318 318 319 318 319 319 318 318 320 321 321 322 321 320 322 323 322 323 322 321 322 322 322 320 320 322 322 323 324 323 328 328 321 323 326 322 324 327 326 325 326 324 321 321 321 320 322 320 322 329 328 330 338 344 348 353 356 357 356 358 360 356 353 353 351 350 350 351 352 352 353 354
318 321 323 324 324 324 323 323 320 321 325 326 323 322 321 319 317 317 318 319 318 318 319 320 320 321 321 322 322 322 323 324 324 324 322 320 321 321 321 320 320 322 323 323 323 323 326 329 325 323 325 324 324 326 325 325 326 324 322 324 323 323 324 319 323 330 323 324 338 348 351 356 358 355 353 355 357 354 351 352 352 351 349 349 350 351 352 353
318 320 323 323 324 324 322 323 325 324 323 322 321 320 319 317 317 318 318 318 318 317 319 320 320 321 322 321 321 321 322 323 323 324 323 322 322 320 320 321 319 321 324 323 323 324 327 329 327 328 335 335 330 329 330 328 326 325 325 325 321 322 324 321 328 334 321 324 343 348 347 354 356 351 350 351 351 350 351 352 351 351 351 348 348 348 349 351
317 319 322 323 326 325 320 322 325 327 327 324 319 318 318 318 318 319 318 318 318 317 318 320 320 320 320 321 321 321 322 322 321 322 323 322 322 320 320 321 320 320 321 322 323 324 325 330 334 333 335 336 332 332 331 327 327 327 326 329 328 331 332 326 331 333 320 323 342 346 346 353 355 351 349 350 350 350 350 352 351 350 351 350 349 348 348 348
319 321 321 324 327 325 322 321 321 322 325 325 322 319 319 319 318 318 318 317 317 317 317 318 318 318 321 321 320 322 323 322 321 322 323 322 321 321 320 320 320 321 322 324 325 324 325 332 340 336 330 327 327 328 327 327 329 327 327 332 334 337 341 334 334 336 327 330 346 351 352 356 355 350 348 348 350 351 350 351 350 350 351 351 351 351 350 349
322 322 323 326 328 326 324 323 320 318 321 328 328 322 318 320 318 317 318 318 317 317 317 318 318 319 322 323 323 324 325 323 323 325 324 323 322 320 320 321 320 321 325 324 322 329 335 335 339 339 333 330 333 334 333 331 327 324 328 336 337 338 340 339 343 345 339 342 352 351 351 353 350 346 346 345 348 350 349 350 350 352 352 351 351 351 351 352
325 325 327 329 329 329 327 325 324 320 320 325 326 320 318 320 318 317 318 317 318 318 319 320 319 319 322 324 325 326 327 326 326 327 325 324 324 321 320 322 321 321 325 322 320 333 340 331 327 331 330 329 332 332 329 327 326 327 333 337 338 339 341 341 345 346 342 349 355 349 347 350 347 346 346 344 347 349 348 348 349 351 352 352 352 352 351 352
328 328 329 330 331 332 331 330 329 324 320 322 322 319 319 318 318 319 318 317 318 318 322 324 321 320 323 326 327 329 330 330 328 329 329 327 327 325 321 322 322 320 322 322 322 330 333 327 323 324 324 325 326 326 327 329 331 334 337 337 337 339 340 341 343 344 344 349 350 345 346 348 347 347 345 344 346 347 346 347 347 349 350 350 351 351 351 352
330 330 329 329 332 332 331 330 329 324 322 326 326 322 319 319 319 318 317 318 319 318 320 322 320 320 324 330 336 335 333 330 328 329 331 328 328 328 324 325 325 321 322 323 322 324 328 330 329 325 325 327 326 325 327 329 331 334 336 337 338 339 339 341 341 341 343 344 344 344 346 347 346 345 344 344 345 344 345 346 347 349 350 348 347 347 347 348
330 331 328 329 332 331 329 329 326 323 324 327 327 324 320 319 318 316 316 317 318 318 319 319 319 320 322 330 336 332 331 333 331 329 328 325 326 328 326 325 325 323 323 324 323 324 324 327 332 330 326 326 326 326 326 327 331 334 335 336 337 338 339 341 341 342 344 343 343 345 347 347 345 343 342 342 343 344 345 346 347 349 349 347 346 345 345 345
326 328 328 331 336 333 329 329 324 324 327 327 326 325 321 320 319 318 318 317 316 318 319 317 319 321 323 328 328 323 324 328 326 324 322 320 321 325 324 323 324 324 325 325 324 326 325 327 335 336 327 324 325 326 327 326 327 331 334 336 337 338 340 340 341 344 345 344 345 347 349 348 344 341 340 340 341 344 345 346 347 346 347 346 345 344 344 345
319 323 326 330 338 335 329 329 326 325 328 327 324 324 321 320 319 320 322 321 317 317 318 316 317 324 327 326 324 321 320 320 320 319 319 317 318 319 320 320 321 322 326 327 326 329 330 329 329 330 327 327 327 325 326 327 327 327 331 334 337 338 339 341 342 343 343 343 346 348 347 345 342 340 339 338 340 341 342 344 345 344 344 344 344 344 344 344
Wind_Speed
11 10 10 10 11 11 11 12 12 13 13 13 12 11 8 7 5 4 4 3 4 4 5 5 6 6 5 6 6 5 5 5 6 9 8 3 6 8 9 9 9 9 9 8 11 14 15 15 16 13 10 7 8 14 14 10 11 9 4 2 2 3 4 4 5 5 3 4 4 5 9 10 6 7 19 24 25 29 24 22 24 20 23 28 29 34 32 30
10 9 9 10 11 11 11 11 12 13 13 14 13 11 9 7 5 4 4 3 4 4 5 6 6 6 7 7 7 6 6 6 6 6 5 2 5 8 10 11 11 10 10 11 12 15 15 14 14 11 10 7 7 15 12 9 10 5 2 2 3 4 4 5 8 6 3 6 7 7 9 10 8 10 20 16 14 24 19 19 27 26 27 29 31 32 31 31
10 9 9 10 10 11 11 11 12 13 13 14 13 12 9 7 5 4 3 2 3 4 5 5 6 7 8 8 8 8 7 5 2 4 4 1 3 5 9 11 12 12 10 11 12 14 14 11 10 8 10 9 9 15 10 9 9 4 3 2 3 4 3 9 14 9 4 9 9 7 8 8 8 10 15 15 14 18 15 19 27 28 32 33 30 31 32 30
10 10 10 10 11 11 11 11 12 13 13 13 14 12 10 7 5 3 2 1 2 3 4 5 6 7 8 9 9 8 6 4 4 7 8 6 3 3 7 9 12 12 10 11 12 14 13 10 10 8 10 10 10 15 10 10 9 4 5 2 1 3 1 7 16 9 1 8 12 10 7 5 9 7 9 20 14 8 15 27 33 34 37 35 31 31 32 29
10 10 10 11 11 11 11 12 13 13 13 14 14 13 10 6 4 3 1 1 1 2 3 4 5 6 8 9 9 8 4 3 4 6 6 7 6 2 5 9 11 11 10 11 13 15 13 11 10 9 9 8 10 10 8 12 10 4 4 1 4 2 2 8 14 4 5 4 8 9 8 6 10 4 7 20 12 7 21 32 38 40 40 36 32 32 31 30
10 10 10 12 12 12 12 13 13 13 13 14 13 12 10 6 4 2 1 1 0 2 3 4 5 6 7 8 9 8 3 1 4 6 4 4 7 5 2 8 10 10 11 12 14 15 13 10 7 8 6 5 7 6 7 11 8 3 2 3 6 2 2 11 10 6 9 5 1 1 5 5 5 2 8 20 16 18 29 35 39 40 40 37 32 32 31 29
11 10 11 12 13 13 13 13 13 14 14 13 13 12 9 6 3 1 0 0 0 2 4 4 5 6 7 8 8 7 4 2 3 4 2 2 4 5 1 7 10 11 12 14 17 15 12 10 7 7 4 3 5 6 8 9 6 2 3 4 5 8 11 13 13 12 13 11 4 9 2 5 4 3 5 18 24 27 33 36 37 37 38 35 31 31 29 26
11 11 11 12 13 13 12 12 13 14 14 13 13 11 9 6 4 2 1 1 1 3 4 5 5 5 6 7 7 7 5 1 3 3 3 5 5 5 2 6 10 12 13 15 17 13 10 8 9 7 4 4 6 8 12 8 3 1 5 5 4 10 14 15 17 17 15 17 9 10 3 8 8 5 3 18 31 33 35 35 36 36 34 32 30 29 26 25
11 11 12 13 13 12 11 12 12 13 13 13 13 11 9 7 5 3 3 3 3 4 6 6 6 5 5 6 6 5 1 4 4 4 5 6 5 3 1 5 10 12 13 17 18 13 9 6 5 5 6 3 5 11 15 6 1 3 8 9 8 10 12 14 18 18 16 14 6 6 5 8 10 6 4 24 36 35 36 36 36 35 32 32 30 28 26 25
12 11 12 13 13 11 10 10 11 12 12 12 12 11 10 8 6 5 5 5 6 6 7 7 7 6 5 4 4 2 3 4 3 6 6 6 6 4 4 6 10 12 14 19 18 12 9 4 2 5 9 3 4 5 10 5 6 11 15 14 13 12 11 14 18 19 16 11 10 3 5 6 7 4 4 24 36 37 37 35 35 33 32 32 29 28 27 25
12 12 12 13 13 10 9 10 10 11 11 12 12 11 10 9 7 7 7 7 7 8 8 8 8 7 7 6 5 3 3 2 3 6 6 7 8 5 5 8 11 12 15 20 16 10 6 1 4 8 7 2 7 10 9 12 17 20 20 17 13 10 10 13 16 16 13 9 9 9 5 8 5 4 7 26 36 38 36 34 33 31 31 31 29 29 27 25
12 12 13 13 12 9 8 9 9 10 11 12 12 11 10 9 8 7 8 8 8 9 9 9 9 9 9 9 8 4 3 0 4 4 5 7 7 5 7 8 11 11 15 19 15 8 5 5 9 11 5 5 5 7 10 17 22 17 13 12 9 7 7 9 10 14 14 5 9 14 5 6 5 4 14 30 35 37 36 33 31 29 31 31 30 30 28 27
12 12 13 13 11 8 7 8 9 10 10 11 12 12 11 10 9 8 8 8 9 10 10 10 11 11 10 9 3 4 3 2 1 2 6 7 4 4 7 8 10 11 14 17 12 6 6 7 11 13 3 6 5 6 12 15 15 9 6 8 7 4 3 6 5 13 14 5 8 11 3 2 7 9 15 32 35 35 33 31 30 29 30 30 31 31 29 28
12 13 13 13 10 7 7 8 9 9 10 11 11 12 12 11 11 10 9 9 9 9 9 10 11 11 10 5 4 3 4 4 2 4 7 8 1 5 6 8 10 11 12 12 7 2 4 9 12 12 4 10 12 14 14 8 4 4 4 4 4 4 1 0 3 8 8 2 4 6 3 6 8 9 17 33 36 35 31 29 29 28 28 29 31 30 29 29
12 13 13 13 9 7 7 8 9 9 9 10 10 12 13 13 13 11 9 9 8 8 8 9 9 10 11 6 4 4 6 5 6 8 8 8 4 5 6 7 8 9 8 6 3 2 8 11 9 4 7 17 19 13 6 3 1 1 3 1 1 3 4 4 4 4 6 3 2 4 3 3 5 6 18 31 35 34 31 28 28 27 26 28 31 31 30 28
12 13 13 11 8 7 8 9 8 8 8 9 10 13 16 15 12 9 9 9 8 7 7 8 8 8 9 5 3 4 6 7 7 10 11 9 7 5 4 4 5 6 5 5 4 8 9 7 5 8 16 16 12 7 3 3 1 2 2 3 1 3 5 4 1 2 9 7 2 3 3 1 4 7 15 26 33 32 29 26 26 26 25 28 32 31 30 28
12 12 12 10 7 7 8 8 7 6 8 11 13 15 16 14 9 6 7 7 8 8 9 8 8 8 6 4 4 3 3 3 1 8 12 10 9 7 4 5 6 6 6 6 7 10 7 4 4 7 12 8 3 5 4 1 2 2 2 2 1 4 5 6 3 2 8 6 2 4 1 3 4 6 10 20 28 29 27 25 25 27 25 27 30 31 30 28
12 12 10 8 6 7 8 8 7 6 9 12 16 16 14 12 7 4 6 8 9 9 8 5 5 4 4 7 7 3 1 0 1 5 9 9 9 9 8 7 6 7 7 7 7 8 6 3 4 3 4 5 4 5 4 4 6 5 4 3 2 3 4 6 7 7 8 5 4 4 2 6 4 3 7 12 21 25 25 26 28 30 27 26 28 30 30 27
12 10 8 6 6 7 7 8 7 8 11 13 15 15 12 13 7 2 8 13 10 6 5 4 4 2 4 10 7 2 2 3 2 4 7 7 8 10 10 9 9 9 6 3 4 7 5 1 3 2 3 6 7 7 7 8 8 9 8 5 5 5 2 4 5 7 11 7 5 3 2 6 4 1 1 2 9 17 19 24 29 30 28 26 28 31 28 27
11 9 7 6 6 7 7 7 7 9 13 13 14 14 12 12 7 4 14 19 14 11 13 13 12 12 12 13 6 2 2 5 5 5 6 7 7 7 11 12 10 9 5 3 4 7 6 2 2 5 5 7 8 10 11 9 7 10 7 4 6 5 2 3 4 6 10 6 6 7 1 4 3 3 6 11 3 8 11 16 25 30 30 28 29 30 27 27
10 8 6 6 6 7 7 7 8 9 13 14 14 14 12 10 6 6 16 20 17 16 17 18 16 17 14 11 9 7 3 4 5 6 5 7 8 5 10 11 5 5 6 4 3 3 5 4 6 8 8 10 9 8 9 8 9 10 7 6 5 4 2 2 4 5 7 3 6 9 5 2 2 2 6 9 6 5 8 8 14 21 28 30 31 29 26 28
9 7 5 6 6 7 7 9 10 10 13 15 15 13 9 8 6 7 11 15 18 16 14 15 15 16 15 11 10 8 4 3 5 7 7 7 8 7 8 8 3 4 4 3 1 1 3 4 10 12 10 10 8 6 7 7 11 8 6 7 4 4 4 4 4 5 4 1 4 7 5 3 1 3 6 5 4 2 3 5 6 11 16 24 32 30 27 28
8 6 5 5 6 8 9 11 11 11 14 15 14 12 7 6 7 8 9 11 15 15 12 12 13 13 13 11 9 7 6 4 5 9 8 8 10 10 8 6 4 5 2 3 4 3 4 7 13 14 10 8 8 7 7 7 8 6 6 6 4 7 5 1 4 7 3 1 4 7 4 1 3 4 7 6 2 3 2 3 8 10 7 12 29 32 28 31
7 6 5 5 6 9 11 11 10 12 14 12 16 16 10 8 9 10 11 7 7 9 9 10 11 10 10 10 7 9 9 7 7 9 11 12 12 9 8 7 5 4 4 6 7 6 8 10 11 11 9 8 9 8 7 6 5 7 9 7 7 10 7 3 8 8 3 2 5 9 4 0 1 3 6 6 2 3 6 5 9 14 9 7 21 29 31 35
7 5 4 5 7 9 11 10 10 13 11 10 15 16 13 13 15 14 11 4 3 6 5 5 6 6 8 7 7 8 8 9 11 11 12 15 13 7 4 8 6 4 7 7 6 6 10 13 7 7 8 9 8 7 7 7 5 5 9 11 14 14 8 10 14 9 4 0 4 7 4 2 3 4 7 5 3 4 6 6 9 16 14 9 14 25 33 37
7 4 4 6 7 9 10 8 10 13 9 9 12 13 12 13 17 17 9 3 2 4 2 1 3 2 3 6 9 6 2 5 10 11 13 13 11 7 3 4 4 5 7 6 4 3 7 11 8 8 10 9 8 6 6 8 6 3 8 12 15 13 12 17 18 9 3 3 5 7 3 3 3 6 9 7 5 7 6 6 10 17 17 12 13 22 32 36
7 4 4 6 8 9 9 8 9 11 10 9 11 13 11 9 13 15 6 3 3 3 2 2 2 3 2 2 7 4 1 3 5 8 16 12 9 9 5 4 3 4 3 1 3 4 5 7 6 8 9 7 6 5 6 8 7 3 7 14 17 15 15 18 15 6 3 3 3 5 2 3 4 7 10 9 8 10 9 7 10 17 20 16 15 20 29 35
7 5 5 7 8 9 10 9 9 9 10 10 13 14 11 7 11 9 2 3 2 2 2 2 1 3 1 3 5 6 6 6 1 6 14 11 7 8 6 4 3 4 5 1 3 6 4 6 7 8 6 4 5 7 7 7 6 3 7 17 18 16 16 15 10 4 2 4 3 6 4 1 2 3 6 8 9 12 14 12 12 17 23 21 19 20 26 33
8 6 5 7 9 10 10 10 9 10 10 12 14 13 9 9 9 4 4 2 2 2 2 1 1 2 3 3 5 9 9 7 4 6 9 8 8 7 4 5 5 5 7 5 4 7 5 5 8 7 5 5 7 8 9 8 5 5 12 14 9 10 13 11 6 4 4 3 2 9 8 3 1 2 6 7 8 13 14 12 13 20 27 26 23 21 24 33
9 7 6 7 9 10 10 9 8 9 11 14 15 13 10 8 4 3 3 1 2 3 1 1 2 3 4 1 4 7 6 5 6 7 6 5 7 9 6 8 6 4 5 4 4 9 9 6 5 5 4 6 6 8 8 6 6 10 13 10 9 7 5 4 2 3 3 1 4 10 12 5 1 4 6 8 12 16 14 10 11 19 27 28 26 22 23 33
10 8 6 6 8 10 10 8 7 10 13 13 14 14 11 4 3 4 1 1 1 2 1 1 3 3 6 5 3 3 4 5 6 5 4 1 1 5 4 4 4 2 4 4 3 6 6 4 4 3 4 3 4 1 2 3 4 9 9 7 8 3 2 3 4 3 2 3 4 9 11 6 2 3 7 12 14 14 14 12 12 17 25 29 28 24 24 32
10 9 6 6 8 9 9 7 8 11 12 11 14 14 7 3 3 1 2 1 1 2 1 4 5 3 5 7 5 4 3 3 3 2 3 2 1 3 3 2 2 2 4 3 3 4 3 3 3 2 2 2 6 3 4 5 4 7 7 7 7 2 1 1 1 1 2 4 3 8 9 4 4 4 9 15 14 10 14 19 20 22 27 30 29 25 25 30
10 10 7 7 7 7 6 7 9 11 10 11 14 11 5 5 2 3 2 2 1 3 3 4 5 4 4 4 4 4 2 1 2 3 4 4 2 3 3 4 5 3 1 3 3 3 3 5 4 2 3 1 6 4 1 2 2 5 6 7 6 4 3 3 2 1 2 4 1 7 7 2 4 3 6 14 16 16 19 25 29 30 31 32 31 27 25 29
9 10 8 8 6 4 3 6 9 9 9 11 12 7 5 4 3 3 3 3 3 3 3 2 3 3 3 3 3 3 1 1 1 4 3 2 1 2 3 4 5 5 2 2 3 1 2 3 3 1 3 2 3 4 6 4 2 0 4 5 5 5 5 4 4 3 3 2 2 5 4 2 2 3 5 12 17 20 21 25 29 31 32 33 31 27 25 29
8 9 9 8 5 1 1 4 7 8 9 10 8 5 4 0 4 4 3 4 3 4 7 8 4 1 0 3 3 3 2 0 2 3 2 2 2 1 2 3 2 3 3 1 3 1 2 4 6 3 3 4 3 2 5 6 3 3 2 4 3 5 5 3 3 4 4 3 2 3 3 3 3 3 4 7 12 16 18 21 24 27 31 32 29 28 26 28
8 9 9 8 4 2 1 3 6 9 9 6 5 3 0 3 3 2 2 3 3 4 8 10 4 2 2 3 1 1 1 1 2 2 1 1 2 1 1 2 3 1 2 0 1 2 2 4 6 3 2 4 6 4 4 6 2 2 0 2 4 4 6 3 0 1 5 3 1 2 3 3 1 3 2 5 8 11 13 17 21 25 29 30 30 30 27 26
8 9 10 9 6 4 1 4 7 12 10 2 4 1 3 4 4 2 2 5 6 3 4 5 4 3 3 3 2 2 1 2 1 2 1 1 1 2 1 4 7 4 1 1 0 1 1 4 7 2 4 8 8 6 4 5 6 3 0 4 3 2 4 3 1 2 3 2 2 3 3 3 1 2 1 6 8 9 10 14 19 23 27 29 31 32 29 26
7 10 11 8 6 6 1 6 10 11 6 2 2 4 3 4 5 4 5 7 6 4 4 1 2 2 3 4 4 4 2 1 1 2 1 1 1 3 3 4 8 11 8 4 1 2 2 2 6 2 2 6 3 4 0 2 2 5 3 2 1 2 1 1 2 1 1 1 2 3 3 2 3 2 2 6 9 10 10 10 13 18 24 28 30 32 31 28
8 10 9 4 8 6 2 9 10 7 1 2 1 3 2 4 5 8 13 10 4 3 3 0 2 2 2 4 3 4 2 2 1 3 2 1 1 3 6 5 6 13 13 9 4 2 2 2 3 6 4 2 3 3 1 3 2 0 2 3 1 3 3 2 2 3 3 2 1 1 2 2 3 3 3 6 8 9 9 9 10 16 23 28 30 32 32 29
9 10 5 5 6 3 6 10 8 6 2 1 3 3 6 5 5 11 17 13 3 2 2 1 3 3 3 5 5 3 3 3 2 3 2 2 1 3 6 5 4 8 11 12 6 3 3 3 1 7 7 3 2 0 4 4 1 1 1 2 1 1 1 1 1 2 4 4 2 1 1 4 3 3 4 6 8 8 9 8 8 15 22 26 28 31 31 27
7 6 4 3 1 5 8 8 7 5 1 3 3 3 7 5 3 9 16 17 7 3 3 2 1 1 2 4 4 3 3 3 3 3 3 2 2 1 3 5 4 5 7 8 6 3 2 2 1 4 5 3 3 4 3 4 4 5 3 4 4 3 1 1 3 3 2 4 4 4 2 5 3 3 4 2 5 6 11 12 10 15 21 23 24 26 28 26
5 4 4 2 3 10 10 5 5 4 2 4 6 6 6 4 1 6 12 14 8 4 4 3 1 1 2 1 2 3 4 2 3 4 2 1 3 0 4 8 11 6 5 3 3 3 1 2 3 2 3 3 7 8 3 2 1 4 3 2 4 4 4 4 3 4 1 2 2 3 1 4 3 4 5 3 6 7 9 14 13 15 20 23 23 23 26 28
7 9 9 2 8 13 7 2 3 1 3 9 13 10 6 2 1 4 6 6 5 4 5 4 1 2 2 1 2 3 4 1 2 3 1 1 2 4 6 11 12 6 4 3 3 6 3 2 2 3 4 5 7 7 5 7 7 3 2 4 2 1 3 5 5 3 2 2 1 4 1 4 3 5 7 8 11 16 13 8 10 12 17 22 24 24 24 27
12 14 12 8 16 14 3 3 3 2 4 9 6 3 2 1 2 2 3 3 3 3 3 3 1 3 2 1 3 5 4 3 2 3 2 1 2 7 11 12 9 5 3 1 1 5 4 1 3 3 4 6 7 8 8 7 6 3 2 6 6 6 4 2 1 3 2 2 2 5 2 5 3 5 10 12 12 16 19 15 11 9 10 15 20 22 24 27
11 10 10 14 19 12 3 4 4 2 3 5 2 3 2 2 3 1 1 1 2 3 2 3 4 5 3 3 5 7 7 4 2 3 4 2 4 8 13 15 10 5 3 1 0 2 2 2 3 4 3 3 3 3 4 4 4 2 3 7 9 10 8 3 3 4 2 2 2 4 3 3 4 9 11 11 11 12 17 20 18 14 9 10 15 20 24 27
6 3 6 15 16 10 9 11 7 3 4 1 2 1 2 1 2 2 2 1 1 6 5 3 5 6 4 5 5 5 7 6 4 4 4 4 4 5 12 18 15 11 9 7 5 3 3 2 2 5 5 3 4 6 6 4 3 4 6 9 9 10 10 7 4 3 3 1 4 5 2 4 8 11 10 10 10 10 12 17 19 17 13 7 9 13 16 19
3 1 3 8 9 9 13 16 12 7 6 2 3 1 1 1 2 1 4 1 2 6 6 4 6 5 3 4 4 3 5 5 6 4 3 3 2 5 12 16 15 15 11 8 7 4 4 3 4 2 1 3 3 6 7 2 4 6 9 11 9 11 14 13 5 1 3 4 4 6 8 9 8 10 9 7 8 9 10 14 15 15 16 12 7 5 5 7
4 4 5 6 3 3 6 11 15 13 6 3 2 1 2 4 2 0 2 3 4 5 4 4 7 5 5 5 4 1 3 5 5 3 2 3 3 5 9 9 9 12 9 7 8 5 5 2 4 4 5 6 6 9 8 10 11 9 12 12 11 13 15 14 9 5 6 7 3 5 11 11 8 9 7 5 7 9 11 14 14 13 14 14 14 13 10 6
5 4 6 8 5 6 9 13 17 14 3 3 2 1 0 3 3 1 1 3 4 3 4 4 6 4 3 6 5 2 0 2 1 3 1 3 4 3 4 4 6 10 6 4 6 5 4 2 4 4 6 7 8 8 7 11 11 11 13 12 12 14 14 13 11 11 13 10 6 8 12 11 8 7 7 8 9 11 15 18 18 16 15 12 12 15 14 10
6 3 7 11 8 11 14 12 11 8 4 3 2 2 2 3 3 2 2 4 2 3 3 4 6 6 2 5 6 3 2 6 4 0 1 3 4 2 1 1 3 6 5 3 2 4 4 2 4 5 5 4 6 7 7 9 12 14 13 10 11 14 13 11 8 8 9 6 5 9 10 8 7 7 9 13 13 14 18 19 19 18 17 16 15 15 14 11
4 2 5 7 6 9 11 9 7 5 3 3 1 2 1 3 2 1 2 3 2 1 3 4 4 5 5 6 6 3 1 3 3 2 3 4 4 3 2 1 2 2 4 3 2 3 3 2 3 5 5 4 4 6 6 7 13 16 12 9 10 12 10 9 8 7 6 3 5 8 7 5 6 6 10 16 17 18 18 17 18 20 20 20 19 18 15 12
5 2 2 2 3 6 7 7 6 4 2 5 6 5 3 2 4 5 3 5 4 6 5 4 4 4 4 5 4 3 4 5 5 5 6 8 6 5 5 5 2 1 0 1 2 2 2 3 2 3 3 4 5 4 4 5 9 9 5 6 10 11 10 10 9 9 8 4 3 4 3 3 4 5 8 13 15 16 17 17 21 23 23 23 21 19 17 14
Wind_Direction
23 26 29 28 27 24 20 16 10 4 359 356 356 355 351 343 328 313 311 317 321 321 323 323 322 325 323 314 313 317 314 300 285 283 286 259 208 207 190 182 172 176 195 180 167 168 174 181 178 178 189 208 203 174 168 183 184 165 148 142 172 222 215 196 179 178 152 142 187 191 157 143 149 149 142 142 140 143 148 146 142 135 136 140 140 145 147 146
19 25 26 26 24 22 19 14 7 0 352 349 350 351 349 342 328 308 304 319 322 321 325 325 326 325 318 314 314 319 324 315 302 296 289 232 193 198 190 186 177 177 190 180 174 175 174 172 168 181 205 224 195 164 160 177 176 163 141 147 186 220 213 176 169 178 174 152 173 178 159 158 162 152 150 150 140 138 136 134 131 127 135 141 141 148 152 150
15 21 22 21 21 20 16 11 5 358 349 346 347 348 348 340 326 302 291 315 325 322 326 331 330 324 316 314 317 323 336 342 10 65 41 14 176 191 194 192 188 188 189 178 179 183 176 167 171 206 227 234 202 170 169 177 175 176 163 173 222 220 190 174 174 176 179 160 164 167 161 180 175 152 154 153 140 138 138 138 134 132 142 146 146 151 155 154
11 15 17 16 17 16 13 8 2 357 351 348 348 348 346 337 321 294 269 286 318 326 333 337 331 324 316 315 320 326 349 25 99 93 57 46 68 186 194 193 195 193 185 178 182 184 185 189 198 228 244 237 188 165 171 175 178 182 170 208 248 220 250 163 172 178 221 169 166 159 151 192 182 158 147 144 138 144 145 145 143 142 148 151 148 149 154 155
8 10 11 11 12 10 8 6 2 360 356 352 351 350 347 339 320 291 246 236 307 329 336 342 332 323 317 318 323 326 359 56 121 109 72 57 54 63 188 193 196 192 182 182 183 182 190 205 220 243 241 213 164 155 172 172 173 178 178 106 81 172 285 122 158 185 3 170 167 148 148 183 179 155 138 144 140 159 152 150 149 148 150 153 151 151 153 154
4 5 6 8 7 5 4 4 4 5 2 358 356 356 353 345 333 303 245 218 303 327 339 348 335 327 321 321 323 328 357 115 140 124 119 65 47 43 175 196 194 188 183 183 181 183 195 207 230 245 224 182 169 173 177 173 181 204 156 79 68 99 108 93 115 89 63 117 249 323 162 168 175 114 135 146 145 153 153 151 150 150 151 153 154 154 155 156
359 360 3 4 4 3 3 4 8 12 10 6 3 5 4 0 3 348 299 341 324 338 342 347 339 335 327 323 329 328 316 261 163 126 118 4 12 15 3 197 192 187 185 183 180 185 197 203 227 238 223 172 185 172 151 156 181 204 97 80 52 72 88 85 98 100 94 131 207 290 271 83 68 43 109 140 144 148 149 150 149 150 151 153 156 157 159 162
355 356 359 1 2 3 4 9 14 17 15 13 12 13 13 14 22 14 359 359 350 347 348 350 342 341 333 327 334 323 303 224 130 84 14 336 327 341 325 198 195 191 187 182 178 183 197 222 244 239 239 196 172 148 138 131 139 149 91 91 64 78 89 93 109 115 113 141 182 289 320 86 70 26 49 134 140 143 146 148 148 149 151 154 157 159 164 168
354 354 357 359 1 2 9 15 17 18 17 18 19 18 17 16 18 11 1 356 352 352 351 348 339 341 341 329 331 324 267 116 83 31 359 338 324 317 251 198 199 195 186 180 178 185 202 232 234 236 281 245 146 152 159 149 66 117 106 101 96 99 92 88 103 110 113 130 140 331 5 86 84 54 114 140 141 142 145 147 148 151 153 156 160 163 168 172
353 354 357 357 360 4 13 18 18 18 16 19 19 18 18 14 12 6 358 355 352 355 358 351 342 340 334 329 321 300 140 117 50 359 339 329 317 281 211 190 197 197 184 180 185 197 205 217 234 300 309 312 59 129 168 158 106 109 101 91 91 101 89 85 94 96 95 89 97 98 343 36 80 44 147 147 143 145 145 146 151 153 155 159 163 166 170 173
354 354 356 357 359 4 15 18 16 14 15 19 18 16 15 11 10 3 357 359 359 1 3 352 344 336 327 317 278 229 118 105 350 334 318 322 316 273 207 189 191 192 185 185 193 199 199 278 320 316 314 139 70 60 98 118 118 113 102 86 74 76 68 82 94 99 97 60 91 125 359 3 26 351 165 151 146 147 147 149 155 156 158 164 166 168 172 173
353 353 356 357 358 5 14 14 11 10 12 14 13 12 9 5 3 357 354 358 2 0 356 351 348 341 326 304 268 208 120 295 327 327 301 320 312 238 191 185 189 187 182 187 193 198 221 287 298 294 287 147 108 69 99 120 122 120 109 95 76 57 45 59 88 118 120 88 115 121 55 356 325 292 161 149 147 148 148 153 159 162 165 168 169 170 172 172
352 354 356 356 357 3 8 8 6 6 8 8 9 7 1 356 351 344 339 341 348 349 350 349 344 340 325 300 249 152 162 222 346 306 283 313 315 191 175 175 184 179 176 187 194 206 243 286 296 285 251 123 110 116 128 122 118 123 114 106 101 83 34 22 70 119 115 109 133 120 77 238 263 268 170 151 150 150 150 158 165 169 171 169 171 173 172 172
352 354 354 356 357 357 1 1 360 1 4 4 2 359 351 346 343 335 322 322 331 335 345 346 339 342 323 280 164 162 213 206 245 256 268 289 278 145 158 163 169 167 170 188 191 199 296 321 305 281 230 129 120 118 125 121 118 139 115 104 112 113 120 41 148 127 98 79 127 112 135 192 245 256 171 156 154 153 155 164 171 174 174 171 171 174 173 172
353 354 355 358 355 351 356 355 357 360 3 2 359 353 343 337 336 329 311 308 314 322 338 335 329 335 317 280 190 221 241 245 253 228 234 256 216 147 149 161 166 163 171 194 201 317 322 318 289 243 129 130 129 122 120 118 144 135 111 116 93 108 130 160 180 134 114 140 95 105 152 195 239 204 162 161 160 157 160 169 175 177 174 170 170 173 172 171
355 355 357 359 354 351 353 356 1 3 1 358 356 349 341 337 335 321 301 298 303 311 323 314 310 321 311 292 259 247 250 275 266 211 207 222 210 180 151 172 183 177 197 225 266 299 308 294 238 136 122 130 132 125 91 72 343 311 115 153 167 131 140 145 227 96 125 141 44 72 150 186 223 183 160 167 167 160 163 171 175 174 170 165 167 170 170 170
357 356 360 1 356 353 355 4 7 4 359 355 358 356 348 344 336 317 307 301 305 314 312 294 288 296 295 325 331 287 254 290 268 188 198 212 218 218 193 198 212 203 225 246 259 268 267 232 184 135 130 139 140 129 103 57 249 285 89 124 157 147 151 139 157 177 129 129 63 53 108 249 237 181 157 174 176 165 164 170 168 168 165 162 165 168 170 171
357 358 5 4 356 355 2 10 7 3 359 356 360 1 360 360 343 309 329 323 314 325 323 274 268 295 308 343 342 311 248 234 156 184 199 210 217 225 216 204 219 221 229 243 241 231 231 196 155 142 141 155 177 156 146 200 194 184 159 147 142 159 182 157 155 173 147 117 104 80 279 261 271 179 152 173 180 169 164 165 163 165 165 162 166 168 170 173
358 2 8 5 360 0 7 11 10 9 6 5 2 1 13 15 4 326 344 330 306 317 332 259 248 262 285 312 326 102 143 165 182 202 202 208 215 225 219 206 216 220 218 231 225 208 200 112 122 164 193 183 193 182 188 209 185 167 166 156 155 164 185 160 140 157 150 125 131 138 253 262 306 26 18 7 175 167 162 165 162 164 167 165 167 169 172 173
359 3 7 5 0 359 5 8 9 9 5 6 4 4 10 6 8 6 343 329 307 309 313 291 270 265 279 296 306 56 142 175 197 220 208 214 219 211 199 199 212 216 210 168 194 211 186 133 193 207 209 208 207 193 203 221 175 146 150 148 159 159 135 137 109 144 154 130 153 164 186 277 330 12 334 344 6 136 133 163 167 165 169 167 169 174 177 177
357 0 0 358 356 355 1 1 358 354 352 355 356 354 349 343 345 340 335 327 318 317 309 301 284 272 283 293 291 312 300 190 215 230 217 218 216 199 190 191 196 218 224 191 180 214 170 171 229 220 215 221 222 210 217 212 159 146 147 142 148 148 117 91 91 150 166 118 156 167 150 194 308 322 302 342 11 70 87 137 171 172 173 170 172 180 183 182
353 353 355 355 355 354 356 351 346 340 338 341 340 340 349 3 360 337 326 313 310 311 299 299 291 272 274 277 276 294 284 232 231 218 214 221 214 209 194 175 173 221 230 196 183 244 170 216 233 221 219 226 235 238 229 189 156 151 144 141 147 142 109 60 84 154 169 81 155 164 139 140 329 306 287 329 19 358 73 118 175 186 182 175 175 181 185 181
348 349 349 349 348 344 344 342 341 342 338 341 350 355 8 30 18 351 326 297 295 304 295 280 273 262 261 267 263 252 242 238 241 222 209 206 206 209 199 176 195 222 221 174 178 174 195 234 230 220 217 221 236 235 215 186 155 153 150 144 150 160 155 118 154 158 152 40 132 132 111 60 348 322 289 285 262 285 286 173 187 199 222 194 181 182 183 179
344 346 337 336 336 333 340 342 346 352 349 3 19 17 15 10 10 355 330 304 281 300 296 257 251 253 252 261 253 233 231 229 245 239 213 202 200 201 207 202 194 221 231 193 185 192 220 236 221 214 219 213 227 231 202 187 175 175 169 155 158 174 182 138 143 144 105 41 113 118 109 307 291 273 265 265 249 269 265 230 201 208 236 229 191 186 180 177
340 344 331 333 333 334 346 351 358 358 357 21 23 17 14 2 357 349 336 331 284 298 304 227 224 245 243 237 227 230 236 236 247 242 215 207 200 189 222 215 193 224 234 206 193 207 239 248 220 206 231 220 224 229 195 183 180 187 186 175 167 170 155 124 135 137 100 48 172 146 131 195 217 240 243 254 268 253 239 226 223 223 230 241 210 190 178 176
334 334 325 329 332 340 349 351 359 1 6 20 13 8 7 357 348 339 337 29 327 295 325 178 198 265 250 208 221 237 281 258 262 247 216 206 206 208 267 245 209 226 222 204 198 203 240 240 205 202 227 225 227 232 212 192 165 184 208 179 159 150 138 141 147 147 142 193 202 180 149 142 191 230 225 220 237 242 228 212 226 231 232 243 231 197 179 177
324 319 313 320 328 337 341 342 355 4 5 1 353 351 352 348 338 329 332 57 344 296 293 260 230 298 343 176 213 201 98 290 288 233 209 199 204 207 223 277 283 253 241 176 228 236 230 212 183 199 218 224 225 230 233 197 159 227 212 161 150 149 149 155 154 147 169 137 149 203 185 109 188 220 208 193 208 231 231 217 221 228 229 234 235 208 185 180
315 303 296 312 323 328 332 334 342 357 357 342 340 347 352 347 331 329 45 83 321 291 280 253 241 291 209 144 187 200 246 266 204 193 203 203 207 193 201 245 245 264 285 296 246 260 233 192 190 193 196 214 220 226 222 169 147 233 167 146 154 157 151 157 152 125 130 102 114 228 231 129 216 216 174 179 202 221 223 216 210 218 224 226 229 215 191 184
309 292 290 308 317 322 329 330 332 342 340 333 338 345 353 350 338 353 91 82 279 258 255 204 347 283 198 162 205 228 256 259 189 184 190 193 212 208 231 261 249 274 269 210 218 270 262 219 206 179 172 212 217 226 210 161 150 164 131 125 129 134 141 148 142 116 119 108 187 216 210 173 230 201 156 171 209 220 219 214 205 211 218 221 223 217 197 187
304 286 285 300 314 323 329 338 342 338 336 336 337 342 349 350 9 64 51 32 228 251 231 173 237 212 177 191 249 233 235 233 213 197 181 176 205 218 249 273 262 275 279 240 226 251 257 264 236 170 172 204 197 212 204 160 148 134 118 107 94 100 132 125 77 90 109 291 236 200 202 197 215 212 181 185 207 210 208 205 204 211 215 217 221 220 201 190
300 284 279 292 310 316 321 349 3 346 343 340 339 348 356 1 79 81 36 248 244 306 351 245 247 185 177 200 255 236 192 216 222 181 177 170 168 216 246 292 273 309 328 318 292 263 270 300 276 195 185 153 110 160 313 41 105 118 118 121 108 87 347 40 15 31 99 270 245 184 191 202 230 231 205 210 215 207 198 196 198 206 211 214 219 220 205 192
295 282 272 284 302 303 310 343 355 346 348 345 346 354 10 38 36 77 232 279 302 284 266 225 234 224 194 194 225 236 165 184 219 151 164 164 140 219 204 191 197 27 344 304 316 308 294 273 263 255 259 126 93 53 347 3 50 97 122 127 113 109 312 85 304 337 176 256 241 165 170 202 249 238 207 211 219 208 197 197 196 199 204 209 215 215 206 194
290 278 269 275 289 295 308 336 340 340 345 348 351 356 48 75 357 264 280 318 228 226 233 218 228 232 201 188 221 225 172 149 196 178 175 148 150 240 236 211 180 131 259 268 313 316 310 306 314 10 311 208 114 108 193 263 29 94 141 149 136 141 159 193 218 189 219 267 292 143 157 233 274 264 211 204 209 205 199 198 198 198 200 205 209 209 205 197
279 272 268 267 274 287 327 343 331 325 333 347 358 14 56 59 275 294 348 309 271 259 261 268 254 221 194 221 217 163 138 306 184 161 162 114 84 269 301 271 215 170 182 274 288 215 126 306 281 195 242 210 131 142 161 158 39 80 180 159 147 152 157 182 191 179 198 234 79 123 158 225 223 254 226 202 202 199 197 199 198 197 198 202 206 204 202 198
272 264 264 265 262 224 48 348 324 318 329 349 14 48 59 281 269 333 335 272 299 323 321 320 312 85 327 261 222 145 113 265 190 151 165 161 149 224 285 298 249 160 104 13 276 217 135 240 254 262 230 168 151 182 139 103 28 287 199 127 151 179 153 150 176 166 152 127 117 151 216 232 200 255 246 195 188 185 187 192 192 194 197 198 202 203 201 198
269 261 260 258 237 156 80 327 319 312 315 356 47 50 250 232 257 299 258 270 303 319 331 330 339 63 342 308 292 206 77 83 173 119 343 184 115 253 241 358 359 126 124 54 282 357 21 272 282 307 263 195 181 178 134 127 147 303 99 179 224 180 130 121 236 94 97 103 183 207 264 285 304 305 278 156 165 175 177 181 186 193 195 195 199 202 202 197
277 267 262 247 206 145 110 303 314 305 298 30 69 271 229 245 275 256 261 314 311 313 5 344 340 10 344 354 347 302 27 17 20 73 352 332 25 306 290 8 353 360 66 98 255 339 35 293 289 255 217 241 215 170 138 150 151 116 165 241 263 48 82 102 102 33 71 106 250 242 254 266 261 299 239 147 158 176 175 175 183 189 191 194 198 201 203 200
296 280 268 239 172 135 175 298 302 292 285 68 20 282 223 237 276 310 339 326 320 12 53 22 313 343 15 24 326 308 33 37 11 80 71 20 359 324 25 19 343 349 3 57 87 332 47 320 302 315 200 246 226 122 94 290 157 153 196 249 70 72 354 32 128 167 162 151 281 281 284 263 214 224 202 167 171 178 173 170 179 185 189 193 196 199 204 205
321 302 276 189 136 134 297 304 285 254 214 56 318 286 256 241 281 336 348 339 318 37 53 305 349 1 17 32 344 318 21 47 50 95 96 52 329 339 16 18 339 347 9 52 77 312 52 102 296 320 323 301 38 65 206 273 325 260 285 326 62 144 174 191 176 162 153 169 231 310 337 285 238 256 244 198 186 179 172 171 180 187 190 192 195 198 202 206
333 318 272 165 139 189 280 284 250 188 138 259 205 228 270 283 317 338 354 1 355 71 51 325 12 5 340 19 9 330 12 35 49 88 74 36 3 343 1 14 349 346 22 50 47 337 37 77 299 315 337 31 57 212 186 196 152 74 313 284 280 267 197 220 241 154 135 147 168 146 274 269 265 300 277 217 186 176 171 170 184 191 192 194 196 199 201 203
337 319 264 189 79 333 303 267 218 171 173 255 210 236 265 268 298 333 1 14 18 37 15 339 38 28 9 26 356 336 25 21 31 74 52 21 77 72 343 25 31 354 21 37 17 356 13 52 42 315 335 12 280 263 217 215 191 160 177 198 190 202 203 325 297 285 113 128 161 159 200 267 282 334 312 222 152 163 172 172 180 189 193 197 198 201 204 205
338 283 243 198 349 331 316 267 218 181 167 243 248 244 246 236 288 340 4 14 14 9 349 348 30 17 48 92 308 18 60 360 8 76 78 33 88 173 322 32 49 45 49 47 318 309 283 89 70 285 281 285 278 278 287 332 192 163 171 206 185 171 143 141 215 265 21 83 135 116 118 267 284 359 350 21 73 92 152 172 178 186 191 196 199 201 205 209
331 290 268 285 344 330 319 275 279 238 206 257 254 240 232 205 53 359 6 9 6 9 356 352 29 14 30 94 330 37 76 27 18 77 104 66 31 347 360 38 48 48 49 53 317 321 345 76 53 313 300 307 304 313 359 36 45 67 350 335 324 218 173 166 183 196 138 132 110 83 55 270 294 10 11 24 54 63 73 113 149 171 187 194 200 203 206 210
330 306 291 338 356 342 308 212 261 245 249 272 266 195 176 117 69 36 10 350 346 20 358 319 15 10 329 356 26 32 52 57 43 46 70 149 356 14 29 32 37 58 66 109 267 331 340 44 59 30 358 344 346 349 351 4 24 47 335 343 2 11 18 103 91 63 96 223 162 122 185 254 293 20 27 28 40 49 45 51 80 111 155 181 191 198 207 212
341 319 305 335 350 351 318 264 260 230 265 292 353 104 127 28 21 72 85 2 355 24 353 300 4 18 3 35 42 30 31 48 44 11 26 30 356 15 24 16 14 46 53 22 113 4 11 89 80 86 78 24 351 319 311 318 332 353 11 12 22 22 24 60 98 75 85 276 61 104 199 244 14 24 27 26 33 43 36 37 46 57 90 152 177 190 204 211
356 323 314 331 343 360 348 337 346 303 270 308 43 61 114 79 334 352 30 88 44 20 11 343 2 17 29 46 53 34 22 31 43 27 11 16 353 342 13 20 12 4 13 24 25 40 87 73 72 124 144 175 205 240 248 249 308 2 37 37 35 35 42 63 87 101 155 158 34 21 5 51 33 18 15 13 27 44 40 38 38 38 51 93 165 186 201 209
351 302 357 342 336 350 347 348 359 324 264 158 101 304 34 105 224 7 21 68 93 29 16 351 355 18 52 55 60 37 12 23 38 28 340 347 338 332 9 28 19 6 22 42 19 33 91 32 9 81 153 201 204 293 304 352 58 59 64 55 46 48 56 61 48 311 168 118 47 16 42 58 30 14 19 7 21 46 46 42 42 38 41 54 79 122 175 198
359 317 348 356 325 318 334 332 328 313 280 134 111 266 11 10 337 73 54 81 75 45 36 1 355 33 96 96 90 33 7 31 25 356 311 336 346 351 3 16 11 7 27 48 22 46 110 27 352 35 19 12 9 344 3 70 85 83 76 66 54 53 63 68 53 39 82 99 85 54 63 62 34 24 28 3 19 52 50 43 48 50 47 51 56 56 63 82
12 327 318 342 328 282 288 303 311 309 293 100 56 275 53 33 25 14 42 73 47 21 65 44 353 358 96 102 104 113 67 91 25 309 293 356 356 12 12 351 345 356 19 59 27 47 98 354 341 49 42 18 5 351 26 72 83 81 73 69 64 60 66 74 67 62 73 85 87 73 68 59 35 19 19 20 37 58 55 47 47 49 51 54 52 43 43 56
26 13 320 331 324 296 299 313 325 325 334 38 32 277 327 55 63 27 60 91 54 341 43 51 351 337 31 83 85 81 185 166 160 247 23 25 2 6 67 241 278 336 11 64 10 25 65 329 315 52 55 357 1 10 22 58 81 78 66 61 67 64 59 58 56 58 65 66 54 60 66 55 27 11 23 35 47 59 59 55 51 50 54 61 62 52 45 49
15 24 334 328 305 302 316 329 348 351 336 357 357 269 343 86 144 200 50 63 75 59 52 45 7 351 13 51 56 40 40 143 139 26 27 16 330 244 213 214 219 322 3 36 12 13 57 355 326 53 57 313 341 36 31 50 73 72 61 57 64 64 61 54 43 43 51 43 28 43 57 47 11 9 33 40 47 56 61 66 68 64 62 65 66 65 62 58
336 278 351 7 277 294 321 331 352 16 327 330 341 316 285 190 162 144 88 358 6 77 67 24 40 40 27 42 39 343 357 25 16 359 357 349 326 264 258 289 303 80 99 114 44 3 70 70 15 55 66 304 321 50 76 56 53 49 41 71 79 76 76 72 56 41 39 45 47 43 60 60 26 25 45 43 43 48 52 63 74 75 73 71 70 69 67 67